www.pogodaiklimat.ru

Погода и климат >> Архив погоды >> Россия >> Камчатский край >> Каменское


АРХИВ ПОГОДЫ в Каменском

Время (UTC), дата Ветер
(напр.,м/с)
 
Видим.   Явления Облачность Т
(С)
Тd
(С)
f
(%)
Тe
(С)
Тes
(С)
Комфортность P
(гПа)
Po
(гПа)
Тmin
(С)
Tmax
(С)
R
(мм)
R24
(мм)
S
(см)
12 15.08 С 1 20 км ясно +6.5 +2.2 74 +6 +6 1021.3 1016.3
15 15.08 ЮВ 1 20 км ясно +4.2 +1.5 83 +3 +3 1022.8 1017.8
18 15.08 ЮВ 2 50 км 3/0
[As op]
+2.9 +1.3 89 -0 -0 1024.3 1019.3
21 15.08 В 7-11
{13}
50 км 6/1 300 м
[St Ac trans]
+8.6 +1.9 63 +5 +5 1025.0 1020.1 +2.7
00 16.08 СВ 10-16
{18}
50 км 10/0
[Ac As]
+11.5 -0.7 43 +8 +8 1023.9 1019.0
03 16.08 СВ 10-17
{19}
50 км 10/0
[Ac As]
+12.5 -1.0 39 +9 +10 1022.5 1017.6
06 16.08 СВ 11-19
{19}
50 км 10/0
[Ac As]
+12.5 -2.0 36 +9 +9 1021.6 1016.8
09 16.08 СВ 7-17
{17}
50 км 10/6 1000 м
[Sc As op]
+10.5 -0.4 47 +7 +7 1022.7 1017.8 +13.1
12 16.08 СВ 7-12
{18}
20 км 8/8 1000 м
[Sc]
+9.7 0.0 51 +6 +6 1023.2 1018.3
15 16.08 СВ 6-13
{15}
20 км 9/9 1000 м
[Sc]
+8.3 +0.8 59 +5 +5 1023.5 1018.5
18 16.08 СВ 6-11
{15}
50 км 9/9 1000 м
[Sc]
+8.1 +1.2 62 +4 +4 1024.8 1019.8
21 16.08 В 5-10
{13}
50 км 8/5 1000 м
[Cu Sc Ac trans]
+9.3 +2.3 62 +6 +7 1025.3 1020.4 +7.9
00 17.08 СВ 4
{11}
50 км 10/10 1000 м
[Sc]
+11.3 +2.8 56 +9 +9 1026.0 1021.1
03 17.08 СВ 5-12
{12}
50 км 6/4 600 м
[Cu hum Ac cast]
+14.3 +4.5 52 +13 +15 1026.0 1021.1
06 17.08 СВ 5
{13}
50 км 6/3 1000 м
[Sc Ac trans]
+14.2 +5.3 55 +13 +13 1025.9 1021.0
09 17.08 С 4
{11}
50 км 6/3 600 м
[Sc Ac trans]
+12.0 +6.0 67 +10 +10 1026.3 1021.4 +14.8
12 17.08 С 4 20 км 4/3 1000 м
[Sc As op]
+10.4 +5.9 74 +8 +8 1026.3 1021.4
15 17.08 СВ 5
{10}
20 км 4/0
[As op]
+10.5 +5.8 73 +8 +8 1024.9 1020.0
18 17.08 СВ 5-10
{14}
50 км 10/10 600 м
[Cb cap]
+9.9 +5.7 75 +7 +7 1024.3 1019.3
21 17.08 СВ 5
{12}
10 км слаб. дождь 10/10 200 м
[Frnb Ns]
+9.7 +6.8 82 +7 +7 1024.2 1019.3 +9.6 0.0
00 18.08 СВ 4
{11}
4000 м слаб. дождь 10/10 200 м
[Frnb Ns]
+11.4 +9.0 85 +9 +9 1023.9 1019.0
03 18.08 С 3 50 км {дождь} 10/8 300 м
[St As op]
+13.4 +9.6 78 +12 +12 1024.0 1019.1
06 18.08 СВ 3 50 км {дождь} 10/10 600 м
[Sc]
+14.5 +9.6 72 +14 +14 1023.9 1019.0
09 18.08 В 2 50 км 10/10 1000 м
[Sc]
+12.6 +9.2 80 +12 +12 1025.0 1020.1 +14.6 0.8
12 18.08 В 1 20 км 10/10 600 м
[Sc]
+11.5 +9.4 87 +11 +11 1025.8 1020.9
15 18.08 В 1 20 км 10/10 600 м
[Sc]
+11.2 +9.6 90 +11 +11 1026.5 1021.6
18 18.08 В 1 4000 м слаб. морось 10/10 200 м
[St]
+11.0 +9.8 92 +11 +11 1027.4 1022.5
21 18.08 ЮВ 1 10 км в посл. час морось 10/10 200 м
[St]
+12.1 +10.8 92 +12 +12 1028.2 1023.3 +11.0 0.5
00 19.08 В 1 10 км {морось} 10/10 600 м
[Sc]
+14.9 +11.7 81 +15 +15 1027.9 1023.0
03 19.08 ЮВ 1 20 км 10/10 1000 м
[Sc]
+17.4 +10.6 64 +18 +18 1026.9 1022.1
06 19.08 штиль 0 20 км 10/10 1000 м
[Sc]
+17.5 +11.1 66 +18 +18 1026.6 1021.8
09 19.08 штиль 0 20 км 10/10 1000 м
[Sc]
+15.8 +12.3 80 +16 +16 1026.5 1021.7 +17.7
12 19.08 З 1 20 км 10/10 1000 м
[Sc]
+14.3 +12.0 86 +15 +15 1026.1 1021.2
15 19.08 штиль 0 20 км 10/10 1000 м
[Sc]
+13.4 +11.7 89 +13 +13 1025.6 1020.7
18 19.08 штиль 0 50 км 10/10 1000 м
[Sc]
+12.9 +11.5 91 +12 +12 1025.2 1020.3
21 19.08 В 1 50 км 10/10 1000 м
[Sc]
+14.7 +12.4 86 +15 +15 1024.7 1019.8 +12.9
00 20.08 В 2 50 км 9/9 1000 м
[Sc]
+17.2 +11.0 67 +18 +18 1023.9 1019.1
03 20.08 В 3 50 км 9/9 1000 м
[Sc]
+17.3 +11.3 68 +17 +18 1023.1 1018.2
06 20.08 В 2 50 км 8/8 1000 м
[Sc]
+18.9 +11.0 60 +20 +21 1021.8 1017.0
09 20.08 С 3 50 км 8/8 1000 м
[Sc]
+17.0 +9.2 60 +17 +17 1021.6 1016.8 +19.3
12 20.08 С 2 20 км 3/3 1000 м
[Sc]
+13.4 +8.2 71 +13 +13 1021.7 1016.8
15 20.08 В 2 20 км ясно +8.1 +6.8 91 +6 +6 1021.7 1016.7
18 20.08 В 2 50 км 8/5 300 м
[St Ac trans]
+7.8 +6.8 93 +6 +6 1021.9 1017.0
21 20.08 В 2 20 км 6/6 600 м
[Cu Sc]
+11.5 +8.7 83 +10 +12 1021.4 1016.5 +6.1
00 21.08 В 3 50 км 1/1 1000 м
[Cu hum]
+16.6 +8.9 60 +16 +23 1020.3 1015.4
03 21.08 В 3 50 км 4/0
[Ci fib]
+19.5 +6.9 44 +20 +26 1018.2 1013.5
06 21.08 В 4 50 км ясно +19.2 +5.4 40 +20 +21 1017.3 1012.5
09 21.08 З 2 50 км 4/0
[Ci fib]
+12.6 +7.2 70 +12 +12 1017.2 1012.3 +19.9
12 21.08 З 3 20 км ясно +7.7 +4.9 82 +5 +5 1016.9 1012.0
15 21.08 З 3 20 км ясно +7.3 +5.1 86 +4 +4 1016.2 1011.3
18 21.08 З 5 50 км 3/3 600 м
[Cu hum]
+9.2 +6.9 86 +6 +6 1015.7 1010.8
21 21.08 З 7-10
{11}
50 км 8/8 1000 м
[Sc]
+13.4 +8.0 70 +11 +11 1015.1 1010.3 +6.6
00 22.08 З 7-10
{12}
50 км 10/0
[As trans]
+17.7 +9.6 59 +17 +18 1014.2 1009.4
03 22.08 З 6
{11}
50 км 8/1 1000 м
[Cu med, cong Ac trans]
+19.9 +8.3 47 +21 +22 комфорт 1013.6 1008.9
06 22.08 З 5 50 км 10/0
[Ac As]
+20.1 +9.2 49 +21 +22 комфорт 1013.4 1008.7
09 22.08 ЮЗ 5 50 км 9/6 1000 м
[Sc Ac trans]
+16.1 +9.2 64 +15 +15 1014.2 1009.4 +20.6

 

Местоположение метеостанции Каменское (Камчатский край, Россия): широта 62.48 долгота 166.20 высота над уровнем моря 40 м.

В архиве по умолчанию представлена погода в Каменском за последнюю неделю. Архивные данные за месяц целиком и за предыдущие месяцы, начиная с января 2011 года, Вы можете получить, выбрав интересующий диапазон дат из раскрывающегося списка и нажав кнопку "Ввод!".


*Определитесь, кто Вы:
робот инопланетянин человек

Внимание! Время в таблицах - всемирное. Для получения местного времени необходимо прибавить поправку, которая равна 12 ч.

Смотрите также архив погоды в соседних городах и на ближайших метеорологических станциях:

Погода в Слаутном (Камчатский край, Россия) (114 км)
Погода в Верхне-Пенжино (Камчатский край, Россия) (218 км)
Погода в Тиличиках (Камчатский край, Россия) (228 км)
Погода в Чемурнауте (Камчатский край, Россия) (258 км)
Погода в Апуке (Камчатский край, Россия) (291 км)
Погода в Марково (Чукотка, Россия) (321 км)
Погода в Кегали (Магаданская область, Россия) (325 км)
Погода в Эвенске (Магаданская область, Россия) (368 км)
Погода в Лабазной (Магаданская область, Россия) (401 км)
Погода в Оссоре (Камчатский край, Россия) (401 км)

Пояснения к столбцам:

Ветер - указаны скорость ветра в м/с - средняя за 10 мин, порывы в срок и между сроками (в фигурных скобках) и направление, откуда дует ветер: С - северный, СВ - северо-восточный, В - восточный, ЮВ - юго-восточный, Ю - южный, ЮЗ - юго-западный, З - западный, СЗ - северо-западный.
Видимость - горизонтальная дальность видимости в метрах или километрах. При видимости от 1 до 10 км при отсутствии осадков обычно наблюдается дымка, при ухудшении видимости до 1 км и менее - туман. В сухую погоду видимость может ухудшаться дымом, пылью или мглою.
Явления - указаны атмосферные явления, наблюдавшиеся в срок или в последний час перед сроком; фигурными скобками обозначены явления, наблюдавшиеся между сроками (за 1-3 часа до срока); квадратными скобками обозначены град или гололедные отложения с указанием их диаметра в мм.
Облачность - указаны через наклонную черту общая и нижняя облачность в баллах и высота нижней границы облаков в метрах; квадратными скобками обозначены формы облаков: Ci - перистые, Cs - перисто-слоистые, Cc - перисто-кучевые, Ac - высококучевые, As - высокослоистые, Sc - слоисто-кучевые, Ns - слоисто-дождевые, Cu - кучевые, Cb - кучево-дождевые. Подробнее классификацию облаков см. в Атласе облаков (PDF).
T - Температура воздуха - температура, измеренная на высоте 2 м над землей.
Td - Температура точки росы - температура, при понижении до которой содержащийся в воздухе водяной пар достигнет насыщения.
f - Относительная влажность воздуха - влажноcть воздуха, измеренная на высоте 2 м над землей.
Te - Эффективная температура - температура, которую ощущает одетый по сезону человек в тени. Характеристика душности погоды. При расчете учитывается влияние влажности воздуха и скорости ветра на теплоощущения человека.
Tes - Эффективная температура на солнце - температура, которую ощущает человек, с поправкой на солнечный нагрев. Характеристика знойности погоды. Зависит от высоты солнца над горизонтом, облачности и скорости ветра. Ночью, в пасмурную погоду, а также при ветре 12 м/с и более поправка равна нулю.
P - Атмосферное давление - приведенное к уровню моря атмосферное давление.
Po - Атмосферное давление - измеренное на уровне метеостанции атмосферное давление.
Tmin - Минимальная температура - минимум температуры воздуха на высоте 2 м над землей.
Tmax - Максимальная температура - максимум температуры воздуха на высоте 2 м над землей.
R - Количество осадков - Количество выпавших осадков за период времени, мм. При наведении курсора мыши на число - период времени, за который выпало указанное количество осадков.
R24 - Количество осадков - Количество выпавших осадков за 24 часа, мм.
S - Снежный покров - Высота снежного покрова, см. При наведении курсора мыши на число - состояние снежного покрова и степень покрытия местности в баллах.